This demonstration page uses our WeatherBlox Daily Observations layout. Learn more.

Left ArrowRight Arrow

39.95238, -75.16362

Hourly Observations for April 25, 2022

Temp ( °F °C ) Dew Point ( °F °C ) Humidity (%) Winds ( mph kmh ) Pressure ( in mb ) Visibility ( mi km ) Precip ( " mm )
12:54 am 00:54 Partly Cloudy 50 10 43 6.1 77 77 E 8 13 30.19 1022 10 16 0.00 0.00
1:54 am 01:54 Partly Cloudy 48 8.9 43 6.1 83 83 E 7 11 30.19 1022 10 16 0.00 0.00
2:54 am 02:54 Mostly Cloudy 48 8.9 42 5.6 80 80 ENE 8 13 30.18 1022 10 16 0.00 0.00
3:54 am 03:54 Mostly Cloudy 48 8.9 42 5.6 80 80 ENE 8 13 30.16 1022 10 16 0.00 0.00
4:54 am 04:54 Cloudy 46 7.8 42 5.6 86 86 ENE 8 13 30.17 1022 10 16 0.00 0.00
5:29 am 05:29 Cloudy 46 7.8 42 5.6 86 86 NE 8 13 30.18 1022 10 16 0.00 0.00
5:54 am 05:54 Mostly Cloudy 47 8.3 43 6.1 86 86 ENE 8 13 30.18 1022 10 16 0.00 0.00
6:54 am 06:54 Mostly Cloudy 50 10 44 6.7 80 80 ENE 9 15 30.19 1022 10 16 0.00 0.00
7:54 am 07:54 Cloudy 51 10.6 44 6.7 77 77 ENE 10 17 30.21 1023 10 16 0.00 0.00
8:54 am 08:54 Cloudy 52 11.1 44 6.7 75 75 E 10 17 30.22 1023 10 16 0.00 0.00
9:54 am 09:54 Cloudy 53 11.7 44 6.7 72 72 E 12 19 30.22 1024 10 16 0.00 0.00
10:54 am 10:54 Cloudy 56 13.3 44 6.7 65 65 E 8 13 30.22 1023 10 16 0.00 0.00
11:54 am 11:54 Cloudy 59 15 46 7.8 62 62 E 9 15 30.22 1023 10 16 0.00 0.00
12:54 pm 12:54 Cloudy 62 16.7 46 7.8 56 56 E 13 20 30.22 1023 10 16 0.00 0.00
1:10 pm 13:10 Cloudy 62 16.7 46 7.8 56 56 E 13 20 30.22 1023 10 16 0.00 0.00
1:54 pm 13:54 Cloudy 62 16.7 47 8.3 58 58 ESE 13 20 30.22 1023 10 16 0.00 0.00
2:54 pm 14:54 Cloudy 61 16.1 45 7.2 56 56 E 14 22 30.22 1023 10 16 0.00 0.00
3:54 pm 15:54 Cloudy 61 16.1 44 6.7 54 54 ESE 13 20 30.21 1023 10 16 0.00 0.00
4:48 pm 16:48 Cloudy 61 16 45 7 55 55 ESE 13 20 30.21 1023 10 16 0.00 0.00
4:54 pm 16:54 Cloudy 61 16.1 43 6.1 52 52 E 12 19 30.21 1023 10 16 0.00 0.00
5:54 pm 17:54 Cloudy 59 15 41 5 51 51 E 13 20 30.20 1023 10 16 0.00 0.00
6:54 pm 18:54 Cloudy 59 15 43 6.1 56 56 E 13 20 30.20 1023 10 16 0.00 0.00
7:54 pm 19:54 Cloudy 58 14.4 43 6.1 58 58 ESE 10 17 30.19 1022 10 16 0.00 0.00
8:54 pm 20:54 Cloudy 57 13.9 43 6.1 60 60 ESE 9 15 30.18 1022 10 16 0.00 0.00
9:54 pm 21:54 Cloudy 56 13.3 44 6.7 65 65 ESE 10 17 30.17 1022 10 16 0.00 0.00
10:54 pm 22:54 Cloudy 55 12.8 44 6.7 67 67 E 9 15 30.16 1022 10 16 0.00 0.00
11:27 pm 23:27 Cloudy 55 12.8 44 6.7 67 67 ESE 8 13 30.16 1021 10 16 0.00 0.00
11:54 pm 23:54 Cloudy 56 13.3 45 7.2 67 67 E 6 9 30.16 1021 10 16 0.00 0.00

Powered by AerisWeather